Location: East Irvine
(33.6759°N, 117.7598°W)
Time: 01:23:44
(UTC+00:00)

Timation 2 Rocket - Pass Details

Date: 15 November 2025
Orbit: 904 x 1075 km, 70.0° (Epoch: 07 December)

Event Time Altitude Azimuth Distance (km) Brightness Sun altitude
Rises 01:51:16 0° 207° (SSW) 3,810 7.7 -13.3°
Reaches altitude 10° 01:53:52 10° 210° (SSW) 2,874 7.1 -13.8°
Maximum altitude 02:00:38 70° 293° (WNW) 1,135 4.5 -15.2°
Drops below altitude 10° 02:07:30 10° 17° (NNE) 2,909 6.2 -16.6°
Sets 02:10:09 0° 20° (NNE) 3,860 6.8 -17.1°
